Retour au catalogue

USA 465

ActifMilitaireVLEO
NORAD 62534·PAYLOAD·🇺🇸 United States

Lancé Jan 10, 2025 depuis Vandenberg Space Force Base

Loading…

Prochains Passages (prochaines 24 heures)

TLE

PériméSource: Mike McCants

Époque: Aug 26, 2026, 01:22 UTC

1 62534U 25005C   26238.05737504 0.00000000  00000-0  00000-0 0    07
2 62534  70.0183 226.4477 0003000  53.5545 306.4454 14.96713313    07

Suivez USA 465 en temps réel avec AllMySat

Download on the App Store